AV279 Weather Reports


time (UTC)temp
C
wind
direction
speed
KPH
gust
KPH
rain 1hr
cm
rain 24hr
cm
rain mn
cm
humidity
%
barometer
mb
20260506234520 10 0 8.0 14.5 0.00 0.00 0.00 84 1013.0
20260506233520 10 23 6.4 12.9 0.00 0.00 0.00 84 1013.1
20260506232520 11 23 4.8 9.7 0.00 0.00 0.00 84 1013.0
20260506231550 11 45 3.2 6.4 0.00 0.00 0.00 84 1013.1
20260506230519 10 0 6.4 14.5 0.00 0.00 0.00 84 1013.0
20260506225520 10 338 4.8 12.9 0.00 0.00 0.00 84 1012.9
20260506224520 10 0 8.0 12.9 0.00 0.00 0.00 84 1013.0
20260506223519 10 23 4.8 8.0 0.00 0.00 0.00 84 1013.0
20260506222519 10 0 4.8 11.3 0.00 0.00 0.00 84 1012.8
20260506221530 10 0 4.8 9.7 0.00 0.00 0.00 85 1012.8
20260506220519 10 338 3.2 8.0 0.00 0.00 0.00 85 1012.8
20260506215519 10 23 4.8 9.7 0.00 0.00 0.00 85 1012.7
20260506214530 9 45 4.8 9.7 0.00 0.00 0.00 85 1012.7
20260506213530 9 338 1.6 3.2 0.00 0.00 0.00 85 1012.8
20260506212519 9 0 3.2 8.0 0.00 0.00 0.00 84 1012.7
20260506211551 9 23 3.2 6.4 0.00 0.00 0.00 84 1012.6
20260506210530 9 315 3.2 6.4 0.00 0.00 0.00 83 1012.7
20260506205520 9 0.0 4.8 0.00 0.00 0.00 83 1012.7
20260506204519 9 315 1.6 4.8 0.00 0.00 0.00 83 1012.7
20260506203519 9 45 6.4 12.9 0.00 0.00 0.00 82 1012.7
20260506202519 9 23 4.8 12.9 0.00 0.00 0.00 82 1012.6
20260506201530 10 338 3.2 6.4 0.00 0.00 0.00 81 1012.6
20260506200520 10 0 4.8 8.0 0.00 0.00 0.00 80 1012.5
20260506195520 10 23 4.8 8.0 0.00 0.00 0.00 80 1012.4
20260506194519 10 23 6.4 11.3 0.00 0.00 0.00 79 1012.2
20260506193519 10 0 6.4 12.9 0.00 0.00 0.00 79 1012.2
20260506192551 10 23 8.0 9.7 0.00 0.00 0.00 79 1012.1
20260506191530 11 23 3.2 4.8 0.00 0.00 0.00 79 1012.1
20260506190600 11 23 9.7 14.5 0.00 0.00 0.00 78 1012.0
20260506185530 11 23 8.0 14.5 0.00 0.00 0.00 78 1011.9
20260506184530 11 315 9.7 17.7 0.00 0.00 0.00 77 1011.9
20260506183519 11 0 6.4 12.9 0.00 0.00 0.00 77 1011.8
20260506182519 11 315 6.4 9.7 0.00 0.00 0.00 77 1011.9
20260506181551 11 0 4.8 17.7 0.00 0.00 0.00 77 1011.7
20260506180519 12 315 6.4 11.3 0.00 0.00 0.00 76 1011.6
20260506175540 12 23 8.0 17.7 0.00 0.00 0.00 76 1011.5
20260506174530 12 23 6.4 14.5 0.00 0.00 0.00 75 1011.4
20260506173519 12 0 4.8 12.9 0.00 0.00 0.00 74 1011.2
20260506172540 12 23 9.7 17.7 0.00 0.00 0.00 74 1011.3
20260506171519 12 293 3.2 4.8 0.00 0.00 0.00 75 1011.2
20260506170519 12 0 4.8 12.9 0.00 0.00 0.00 75 1011.1
20260506165519 12 338 8.0 19.3 0.00 0.00 0.00 75 1010.9
20260506164550 12 23 6.4 12.9 0.00 0.00 0.00 74 1011.0
20260506163549 12 338 9.7 19.3 0.00 0.00 0.00 74 1010.8
20260506162519 13 23 4.8 8.0 0.00 0.00 0.00 74 1010.7
20260506161519 13 23 8.0 17.7 0.00 0.00 0.00 74 1010.6
20260506160519 13 0 4.8 12.9 0.00 0.00 0.00 74 1010.7
20260506155539 13 0 9.7 19.3 0.00 0.00 0.00 74 1010.7
20260506154519 13 113 4.8 12.9 0.00 0.00 0.00 73 1010.6
20260506153551 13 0 14.5 19.3 0.00 0.00 0.00 72 1010.6
20260506152529 13 0 11.3 17.7 0.00 0.00 0.00 71 1010.7
20260506151529 14 45 6.4 12.9 0.00 0.00 0.00 72 1010.6
20260506150518 14 0 8.0 19.3 0.00 0.00 0.00 72 1010.6
20260506145620 13 338 11.3 22.5 0.00 0.00 0.00 71 1010.6
20260506144530 13 0 6.4 14.5 0.00 0.00 0.00 71 1010.6
20260506143530 13 45 6.4 11.3 0.00 0.00 0.00 71 1010.6
20260506142559 13 23 17.7 25.7 0.00 0.00 0.00 70 1010.6
20260506141539 13 315 8.0 14.5 0.00 0.00 0.00 69 1010.6
20260506140529 13 23 9.7 17.7 0.00 0.00 0.00 68 1010.6
20260506135551 13 23 12.9 22.5 0.00 0.00 0.00 69 1010.6
20260506134551 13 0 9.7 17.7 0.00 0.00 0.00 70 1010.5
20260506133518 14 23 11.3 19.3 0.00 0.00 0.00 68 1010.4
20260506132519 15 338 11.3 25.7 0.00 0.00 0.00 66 1010.6
20260506131519 15 0 14.5 20.9 0.00 0.00 0.00 63 1010.5
20260506130519 15 0 8.0 17.7 0.00 0.00 0.00 64 1010.5
20260506125529 15 23 11.3 19.3 0.00 0.00 0.00 64 1010.5
20260506124539 15 0 8.0 17.7 0.00 0.00 0.00 67 1010.3
20260506123518 14 0 11.3 16.1 0.00 0.00 0.00 68 1010.3
20260506122518 15 0 14.5 25.7 0.00 0.00 0.00 67 1010.3
20260506121529 15 0 12.9 19.3 0.00 0.00 0.00 67 1010.1
20260506120529 14 45 9.7 16.1 0.00 0.00 0.00 69 1010.1
20260506115519 14 0 8.0 19.3 0.00 0.00 0.00 68 1010.1
20260506114529 15 45 12.9 27.4 0.00 0.00 0.00 65 1010.2
20260506113529 15 45 8.0 12.9 0.00 0.00 0.00 66 1010.2
20260506112539 15 23 16.1 22.5 0.00 0.00 0.00 65 1010.1
20260506111529 15 0 11.3 19.3 0.00 0.00 0.00 65 1010.1
20260506110538 14 23 9.7 22.5 0.00 0.00 0.00 66 1010.1
20260506105529 15 0 14.5 20.9 0.00 0.00 0.00 67 1010.1
20260506104540 15 0 11.3 25.7 0.00 0.00 0.00 66 1010.0
20260506103539 15 0 11.3 17.7 0.00 0.00 0.00 67 1010.1
20260506102518 15 0 9.7 16.1 0.00 0.00 0.00 65 1010.0
20260506101518 14 23 8.0 16.1 0.00 0.00 0.00 67 1010.2
20260506100519 15 45 9.7 20.9 0.00 0.00 0.00 67 1010.0
20260506095529 15 23 11.3 16.1 0.00 0.00 0.00 67 1009.8
20260506094519 14 0 12.9 22.5 0.00 0.00 0.00 68 1009.8
20260506093518 14 23 9.7 17.7 0.00 0.00 0.00 69 1009.8
20260506092549 13 0 11.3 24.1 0.00 0.00 0.00 67 1009.8
20260506091521 14 0 8.0 16.1 0.00 0.00 0.00 67 1009.9
20260506090520 13 23 11.3 22.5 0.00 0.00 0.00 69 1009.9
20260506085601 13 23 11.3 19.3 0.00 0.00 0.00 69 1009.9
20260506084518 13 23 11.3 19.3 0.00 0.00 0.00 68 1009.8
20260506083518 13 45 8.0 16.1 0.00 0.00 0.00 68 1009.7
20260506082531 13 0 8.0 12.9 0.00 0.00 0.00 70 1009.7
20260506081531 13 90 4.8 17.7 0.00 0.00 0.00 70 1009.5
20260506080518 13 23 16.1 25.7 0.00 0.00 0.00 69 1009.5
20260506072520 12 23 6.4 11.3 0.00 0.00 0.00 75 1009.3
20260506071531 11 23 14.5 24.1 0.00 0.00 0.00 76 1009.5
20260506070600 11 23 9.7 19.3 0.00 0.00 0.00 76 1009.4
20260506061520 11 338 3.2 9.7 0.00 0.00 0.00 79 1009.2
20260506060503 11 45 6.4 9.7 0.00 0.00 0.00 79 1009.3
20260506050718 11 0 9.7 12.9 0.00 0.00 0.00 79 1009.2
20260506044330 10 23 4.8 8.0 0.00 0.00 0.00 79 1009.3
20260506043339 10 45 4.8 12.9 0.00 0.00 0.00 79 1009.2
20260506042319 10 23 4.8 11.3 0.00 0.00 0.00 80 1009.2
20260506041340 10 23 9.7 16.1 0.00 0.00 0.00 79 1009.3
20260506040352 10 0 9.7 16.1 0.00 0.00 0.00 79 1009.3
20260506035340 10 315 8.0 17.7 0.00 0.00 0.00 80 1009.3
20260506034330 10 0 9.7 14.5 0.00 0.00 0.00 80 1009.4
20260506033320 10 0 8.0 17.7 0.00 0.00 0.00 80 1009.2
20260506032350 10 0 6.4 14.5 0.00 0.00 0.00 80 1009.3
20260506031320 10 23 11.3 24.1 0.00 0.00 0.00 79 1009.3
20260506030352 10 23 8.0 12.9 0.00 0.00 0.00 80 1009.3
20260506025330 10 23 6.4 9.7 0.00 0.00 0.00 80 1009.2
20260506024341 10 23 4.8 14.5 0.00 0.00 0.00 80 1009.1
20260506023330 10 45 6.4 16.1 0.00 0.00 0.00 79 1009.2
20260506022319 10 23 12.9 19.3 0.00 0.00 0.00 79 1009.3
20260506021319 10 45 8.0 14.5 0.00 0.00 0.00 80 1009.3
20260506020330 10 338 9.7 14.5 0.00 0.00 0.00 80 1009.3
20260506015330 10 0 12.9 22.5 0.00 0.00 0.00 80 1009.3
20260506014320 10 338 8.0 16.1 0.00 0.00 0.00 81 1009.4
20260506013319 10 23 9.7 16.1 0.00 0.00 0.00 81 1009.5
20260506012320 10 23 9.7 14.5 0.00 0.00 0.00 81 1009.4
20260506011350 10 23 9.7 12.9 0.00 0.00 0.00 81 1009.4
20260506010319 10 0 8.0 14.5 0.00 0.00 0.00 80 1009.5
20260506005339 10 23 6.4 12.9 0.00 0.00 0.00 80 1009.6
20260506004319 10 23 12.9 20.9 0.00 0.00 0.00 81 1009.7
20260506003330 10 23 4.8 8.0 0.00 0.00 0.00 81 1009.8
20260506002319 10 68 4.8 12.9 0.00 0.00 0.00 80 1009.8
20260506001319 10 23 8.0 16.1 0.00 0.00 0.00 80 1009.8
20260506000330 10 338 6.4 12.9 0.00 0.00 0.00 79 1009.8